Regional Weather Roundup
Issued by NWS

Home | Current Version | Previous Version | Graphics & Text | Print | Product List | Glossary On
Versions: 1 2 3 4 5 6 7 8 9 10 11 12 13 14 15 16 17 18 19 20 21 22 23 24 25 26 27 28 29 30 31 32 33 34 35 36 37 38 39 40 41 42 43 44 45 46 47 48 49 50
000
ASUS43 KMPX 281301
RWRMN
WEATHER ROUNDUP FOR MINNESOTA
NATIONAL WEATHER SERVICE TWIN CITIES/CHANHASSEN MN
800 AM CDT WED SEP 28 2016


NOTE: "FAIR" INDICATES FEW OR NO CLOUDS BELOW 12,000 FEET WITH NO
SIGNIFICANT WEATHER AND/OR OBSTRUCTIONS TO VISIBILITY. N/A MEANS
CURRENT SKY AND/OR WEATHER CONDITIONS ARE NOT AVAILABLE.

MNZ060>063-068>070-281400-
   Twin Cities Metro

CITY           SKY/WX    TMP DP  RH WIND       PRES   REMARKS
TWIN CITIES    CLOUDY    52  47  83 N12       30.08R
ST PAUL        CLOUDY    52  48  86 NW10      30.08R
CRYSTAL        CLOUDY    52  46  80 NW9       30.07R
BLAINE         CLOUDY    52  52 100 N9        30.07R
LAKEVILLE      CLOUDY    50  48  93 N7        30.07R
EDEN PRAIRIE   CLOUDY    53  47  79 N9        30.07R
LAKEVILLE      CLOUDY    50  48  93 N7        30.07R
SOUTH ST PAUL  CLOUDY    52  47  84 N12       30.07R
LAKE ELMO      CLOUDY    52  50  93 N8        30.07R
$$
MNZ001>005-007-008-013>017-022>024-027-028-281400-
   Northwest Minnesota

CITY           SKY/WX    TMP DP  RH WIND       PRES   REMARKS
BEMIDJI        CLOUDY    46  46 100 N3        30.19R
HALLOCK        CLOUDY    37  37 100 CALM      30.24R
ROSEAU         CLOUDY    48  43  81 NW6       30.23R
WARROAD        CLOUDY    48  45  87 N5        30.23R
THIEF RVR FALL   N/A     46  44  93 N8        30.24R
CROOKSTON      MOCLDY    46  45  93 E6        30.23R
FOSSTON        CLOUDY    45  43  93 N3        30.21R
DETROIT LAKES  CLOUDY    46  45  93 NE5       30.20R
MOORHEAD       CLOUDY    45  43  93 N6        30.22R
PARK RAPIDS    CLOUDY    49  44  83 N8        30.18R
MAHNOMEN       CLOUDY    45  44  96 N3        30.21R
$$
MNZ006-009>011-018-025>026-281400-
   North Central Minnesota

CITY           SKY/WX    TMP DP  RH WIND       PRES   REMARKS
BAUDETTE       CLOUDY    50  48  93 NE5       30.21R
FLAG ISLAND    CLOUDY    50  48  93 NW9       30.20R
INTL FALLS     CLOUDY    51  47  86 NE5       30.19R
WASKISH        FOG       46  46 100 NE3       30.21R VSB 3/4
BIG FORK       CLOUDY    50  48  93 N3        30.18R
GRAND RAPIDS   CLOUDY    49  48  97 N8        30.17R
ORR            CLOUDY    48  46  93 CALM      30.15R
COOK           CLOUDY    48  48 100 CALM      30.16R
WALKER         CLOUDY    46  45  98 N7        30.18R
$$
MNZ012-019>021-037-281400-
   Northeast Minnesota

CITY           SKY/WX    TMP DP  RH WIND       PRES   REMARKS
DULUTH         PTCLDY    50  48  93 N8        30.11R
ELY            CLOUDY    50  48  93 N5        30.14R
HIBBING        CLEAR     47  46  97 N6        30.14R
EVELETH        MOCLDY    53  49  88 N8        30.14R
DULUTH HARBOR  MOCLDY    55  50  82 N17       30.11R
TWO HARBORS    MOCLDY    54  48  82 N5        30.09R
SILVER BAY     CLOUDY    54  48  82 N7        30.09R
GRAND MARAIS     N/A     56  48  74 N8G18     30.09R
G MARAIS ARPRT CLOUDY    48  43  81 N9        30.11R
$$
MNZ029>031-032-039>041-046>048-054>057-064-281400-
   West Central Minnesota

CITY           SKY/WX    TMP DP  RH WIND       PRES   REMARKS
FERGUS FALLS   CLOUDY    46  46 100 NE6       30.22R
MORRIS         CLOUDY    46  45  93 N8        30.17R
ALEXANDRIA     CLOUDY    48  47  96 N7        30.18R
ELBOW LAKE     CLOUDY    46  45  96 NE5       30.19R
WADENA         CLOUDY    46  45  93 N6        30.17R
GLENWOOD       CLOUDY    46  46 100 N7        30.17R
ORTONVILLE     CLOUDY    45  43  93 CALM      30.11F
MADISON        CLOUDY    48  46  93 N6        30.18R
WILLMAR        CLOUDY    50  48  93 N7        30.16R
$$
MNZ033>034-036-042>043-049>051-058-059-281400-
   Central Minnesota

CITY           SKY/WX    TMP DP  RH WIND       PRES   REMARKS
ST CLOUD       CLEAR     48  47  96 N8        30.11R
SAUK CENTRE    CLOUDY    48  46  91 NW7       30.16R
PAYNESVILLE    CLEAR     49  49 100 NW7       30.14R
AITKIN           N/A     52  46  82 N8        30.12R
PINE RIVER     CLEAR     48  48 100 N6        30.19R
BRAINERD       CLEAR     48  47  96 N7        30.15R
STAPLES        CLEAR     45  45 100 NW6       30.16R
LONG PRAIRIE   CLOUDY    46  45  93 W6        30.16R
LITTLE FALLS   PTCLDY    48  45  87 NW6       30.14R
LITCHFIELD     CLEAR     50  46  87 NW7       30.13R
BUFFALO        CLOUDY    50  46  88 N8        30.11R
MAPLE LAKE     PTCLDY    50  48  94 N5        30.11R
HUTCHINSON     CLOUDY    51  47  89 NW9       30.12R
$$
MNZ037-044-045-052-053-281400-
   East Central Minnesota

CITY           SKY/WX    TMP DP  RH WIND       PRES   REMARKS
PRINCETON        N/A     52  48  87 NW5       30.10R
MORA           CLOUDY    50  46  87 N6        30.12R
CAMBRIDGE      CLOUDY    54  46  76 N9        30.08R
MOOSE LAKE     CLOUDY    50  46  87 N8        30.09R
HINCKLEY       CLOUDY    52  48  87 N12       30.09R
CLOQUET        PTCLDY    48  46  93 N8        30.11R
MCGREGOR       PTCLDY    48  46  93 N9        30.13R
$$
MNZ071>073-080-081-089-090-097-098-281400-
   Southwest Minnesota

CITY           SKY/WX    TMP DP  RH WIND       PRES   REMARKS
MONTEVIDEO     CLOUDY    46  45  93 NE10      30.18R
GRANITE FALLS  CLOUDY    48  46  92 NW7       30.18R
CANBY          CLOUDY    46  44  91 N7        30.19R
MARSHALL       CLOUDY    46  43  89 NE9       30.17R
REDWOOD FALLS  CLOUDY    47  45  93 NW8       30.14R FOG
OLIVIA         CLOUDY    50  46  87 N7        30.14R
PIPESTONE      CLOUDY    45  43  93 N8        30.14R
WINDOM         CLOUDY    46  45  93 N9        30.13R
WORTHINGTON    CLOUDY    44  42  93 N17       30.13R
JACKSON        CLOUDY    46  41  81 N8        30.12R
TRACY          CLOUDY    46  44  94 N12       30.15R
$$
MNZ065>067-074>077-082>085-091>093-281400-
   South Central Minnesota

CITY           SKY/WX    TMP DP  RH WIND       PRES   REMARKS
ST JAMES       CLOUDY    48  46  93 NW7       30.12R
FAIRMONT       CLOUDY    48  46  93 N12       30.10R
GLENCOE        CLEAR     47  47  99 NW5       30.10R
FARIBAULT      CLOUDY    52  46  82 NW8       30.07R
OWATONNA       CLOUDY    52  46  82 NW9       30.06R
WASECA         CLOUDY    52  46  82 NW10      30.08R
ALBERT LEA     CLOUDY    52  46  82 NW8       30.05R
$$
MNZ078>079-086>088-094>096-281400-
   Southeast Minnesota

CITY           SKY/WX    TMP DP  RH WIND       PRES   REMARKS
ROCHESTER      LGT RAIN  50  49  96 NW14      30.02R FOG
RED WING       CLOUDY    54  48  82 N7        30.02R
DODGE CENTER   CLOUDY    48  46  93 N10       30.04R
WINONA         CLOUDY    54  50  87 NW13      29.99R
AUSTIN         CLOUDY    50  46  87 N12G17    30.03R
PRESTON        CLOUDY    48  46  91 NW13      30.01R FOG
$$
ABBREVIATIONS USED IN REMARKS
   TC - TEMPERATURES IN CELSIUS
  WCI - WIND CHILL INDEX
   HX - HEAT INDEX
  VSB - VISIBILITY
$$




USA.gov is the U.S. government's official web portal to all federal, state and local government web resources and services.